User: anonymous   Login
Location: Unspecified
(0.0000°N, 0.0000°E)
Time: 22:26:15
(UTC+00:00)
Language:

STARLINK-32651 - Orbit

View from above orbital plane
View from above orbital plane
View from above satellite
View from above satellite

Ground track
Ground track

The orbit is defined by the following mean orbital elements,

1 62314U          26145.36012316 +.00000000 +00000-0 +26175-3 0 00003
2 62314  53.1580 197.7103 0000869  69.8937 290.2157 15.30198676    05
Epoch (UTC): 25 May 2026 08:38:34
Eccentricity: 0.0000869
inclination: 53.1580°
perigee height: 475 km
apogee height: 476 km
right ascension of ascending node: 197.7103°
argument of perigee: 69.8937°
revolutions per day: 15.30198676
mean anomaly at epoch: 290.2157°

The dashed part of the orbit path shows where the satellite is in the earth's shadow,  

DLR